Weather History for KEST - September, 2011

Change the Weather History Date:

Friday, September 9, 2011

  Actual Average Record
Temperature  
Mean Temperature 70 °F 63 °F  
Max Temperature 84 °F 76 °F 96 °F (2013)
Min Temperature 56 °F 51 °F 37 °F (2008)
Degree Days  
Heating Degree Days 0 4  
Month to date heating degree days 27 25  
Since 1 July heating degree days 29 57  
Cooling Degree Days 5 2  
Month to date cooling degree days 27 24  
Year to date cooling degree days 727 564  
Growing Degree Days 20 (Base 50)    
Moisture  
Dew Point 57 °F    
Average Humidity 65    
Maximum Humidity 93    
Minimum Humidity 37    
Precipitation  
Precipitation 0.00 in 0.10 in 4.75 in (1964)
Month to date precipitation 0.37 0.90  
Year to date precipitation 18.55  
Sea Level Pressure  
Sea Level Pressure 30.06 in    
Wind  
Wind Speed 8 mph (North)    
Max Wind Speed 16 mph    
Max Gust Speed 22 mph    
Visibility 10 miles    
Events      
T = Trace of Precipitation, MM = Missing Value Source: NWS Daily Summary

Daily Weather History Graph

Daily Weather History Graph

Search for Another Location

Airport or City:

Trip Planner

Search our weather history database for the weather conditions in past years. The results will help you decide how hot, cold, wet, or windy it might be!

Date:

Astronomy

Sep. 09, 2011 Rise Set
Actual Time 6:51 AM CDT 7:40 PM CDT
Civil Twilight 6:22 AM CDT 8:09 PM CDT
Nautical Twilight 5:48 AM CDT 8:43 PM CDT
Astronomical Twilight 5:12 AM CDT 9:19 PM CDT
Moon 6:09 PM CDT (9/9) 4:08 AM CDT (9/9)
Length of Visible Light 13h 46m
Length of Day
12h 48m
Waxing Gibbous, 93% of the Moon is Illuminated
Sep 9
Waxing Gibbous
Sep 12
Full
Sep 20
Last Quarter
Sep 27
New
Oct 3
First Quarter

Hourly Weather History & Observations

Time (CDT) Temp. Heat Index Dew Point Humidity Pressure Visibility Wind Dir Wind Speed Gust Speed Precip Events Conditions
12:52 AM 59.0 °F - 55.0 °F 87% 30.14 in 10.0 mi NNW 5.8 mph - N/A   Clear
1:52 AM 57.0 °F - 54.0 °F 89% 30.13 in 10.0 mi NNW 5.8 mph - N/A   Clear
2:52 AM 57.0 °F - 54.0 °F 89% 30.12 in 10.0 mi NW 5.8 mph - N/A   Clear
3:52 AM 55.9 °F - 54.0 °F 93% 30.11 in 10.0 mi NW 5.8 mph - N/A   Clear
4:52 AM 57.0 °F - 54.0 °F 89% 30.10 in 10.0 mi NW 6.9 mph - N/A   Clear
5:52 AM 57.0 °F - 54.0 °F 89% 30.09 in 10.0 mi NW 5.8 mph - N/A   Clear
6:52 AM 55.9 °F - 54.0 °F 93% 30.10 in 10.0 mi NW 5.8 mph - N/A   Clear
7:52 AM 59.0 °F - 55.0 °F 87% 30.10 in 10.0 mi NW 6.9 mph - N/A   Clear
9:52 AM 69.1 °F - 57.9 °F 68% 30.09 in 10.0 mi North 13.8 mph - N/A   Clear
10:52 AM 73.0 °F - 59.0 °F 61% 30.08 in 10.0 mi North 10.4 mph - N/A   Clear
11:52 AM 75.9 °F - 59.0 °F 56% 30.08 in 10.0 mi North 11.5 mph - N/A   Clear
12:52 PM 79.0 °F - 60.1 °F 52% 30.06 in 10.0 mi North 9.2 mph - N/A   Clear
1:52 PM 82.0 °F 82.1 °F 59.0 °F 45% 30.04 in 10.0 mi North 11.5 mph - N/A   Clear
2:52 PM 82.9 °F 82.4 °F 57.0 °F 41% 30.02 in 10.0 mi NNE 13.8 mph - N/A   Clear
3:52 PM 82.9 °F 82.1 °F 55.9 °F 39% 30.00 in 10.0 mi North 12.7 mph 21.9 mph N/A   Clear
4:52 PM 84.0 °F 83.0 °F 55.9 °F 38% 29.99 in 10.0 mi North 15.0 mph - N/A   Clear
5:52 PM 82.0 °F 81.6 °F 55.9 °F 41% 29.99 in 10.0 mi NNE 11.5 mph - N/A   Clear
6:52 PM 77.0 °F - 59.0 °F 54% 29.99 in 10.0 mi NNE 5.8 mph - N/A   Clear
7:52 PM 70.0 °F - 60.1 °F 71% 29.99 in 10.0 mi North 6.9 mph - N/A   Clear
8:52 PM 66.0 °F - 59.0 °F 78% 30.01 in 10.0 mi North 4.6 mph - N/A   Clear
9:52 PM 64.9 °F - 57.9 °F 78% 30.01 in 10.0 mi North 5.8 mph - N/A   Clear
10:52 PM 63.0 °F - 57.9 °F 84% 30.03 in 10.0 mi NNE 4.6 mph - N/A   Clear
11:52 PM 62.1 °F - 57.0 °F 84% 30.03 in 10.0 mi NNE 4.6 mph - N/A   Clear